Location: Berg
(47.2344°N, 9.5296°E)
Time: 15:15:13
(UTC+00:00)

Cosmos 44 - Pass Details

Date: 13 May 2021
Orbit: 571 x 791 km, 65.1° (Epoch: 11 June)

Event Time Altitude Azimuth Distance (km) Brightness Sun altitude
Rises 21:15:48 0° 322° (NW) 3,296 8.4 -18.6°
Reaches altitude 10° 21:18:16 10° 323° (NW) 2,358 7.3 -18.8°
Maximum altitude 21:23:44 89° 44° (NE) 779 3.4 -19.3°
Enters shadow 21:25:47 39° 143° (SE) 1,138 3.9 -19.5°
